This is the latest recevied weather packets stored in our database for station/object KGRR-WX. If no packets are shown the sender has not sent any weather packets the latest 1 day(s).
| Time | Temp. | Humidity | Pressure | Rain* | Wind** | Luminosity | Snow |
|---|---|---|---|---|---|---|---|
| 1777993226 | 11.67° C | 33% | 978.7 hPa | 0 mm | 6.26 m/s, 273° | - | - |
| 1777992308 | 11.11° C | 52% | 978.7 hPa | 0 mm | 6.26 m/s, 268° | - | - |
| 1777991415 | 10.56° C | 38% | 978.5 hPa | 0 mm | 5.81 m/s, 270° | - | - |
| 1777990507 | 11.67° C | 38% | 978.5 hPa | 0 mm | 5.36 m/s, 270° | - | - |
| 1777989626 | 11.11° C | 38% | 978.5 hPa | 0 mm | 4.92 m/s, 275° | - | - |
| 1777988707 | 11.11° C | 45% | 978.5 hPa | 0 mm | 4.92 m/s, 286° | - | - |
| 1777987832 | 10.56° C | 45% | 978.5 hPa | 0 mm | 5.36 m/s, 285° | - | - |
| 1777986907 | 10.56° C | 45% | 978.4 hPa | 0 mm | 6.26 m/s, 287° | - | - |
| 1777986025 | 11.11° C | 45% | 978.5 hPa | 0 mm | 4.92 m/s, 297° | - | - |
| 1777985107 | 11.11° C | 59% | 977.9 hPa | 0 mm | 4.92 m/s, 294° | - | - |
| 1777984223 | 11.11° C | 55% | 976.3 hPa | 0 mm | 3.13 m/s, 298° | - | - |
| 1777983307 | 11.11° C | 55% | 976.3 hPa | 0 mm | 3.13 m/s, 326° | - | - |
| 1777982426 | 10.56° C | 55% | 976.3 hPa | 0 mm | 3.58 m/s, 325° | - | - |
| 1777981507 | 10.56° C | 61% | 976.2 hPa | 0 mm | 2.68 m/s, 318° | - | - |
| 1777980615 | 10.56° C | 63% | 974.7 hPa | 0 mm | 4.02 m/s, 332° | - | - |
| 1777979707 | 10.56° C | 63% | 974.6 hPa | 0 mm | 4.02 m/s, 337° | - | - |
| 1777978827 | 10° C | 63% | 974.6 hPa | 0 mm | 4.92 m/s, 339° | - | - |
| 1777977907 | 10.56° C | 52% | 973.1 hPa | 0 mm | 4.47 m/s, 311° | - | - |
| 1777977016 | 10.56° C | 52% | 973.1 hPa | 0 mm | 4.92 m/s, 298° | - | - |
| 1777976108 | 10.56° C | 52% | 973.1 hPa | 0 mm | 4.92 m/s, 287° | - | - |
| 1777975228 | 10.56° C | 52% | 973.1 hPa | 0 mm | 4.47 m/s, 275° | - | - |
| 1777974307 | 11.11° C | 50% | 973.3 hPa | 0 mm | 4.47 m/s, 278° | - | - |
| 1777973424 | 11.67° C | 48% | 972.9 hPa | 0 mm | 4.02 m/s, 274° | - | - |
| 1777972507 | 11.67° C | 48% | 973 hPa | 0 mm | 4.47 m/s, 257° | - | - |
| 1777971628 | 12.22° C | 48% | 973 hPa | 0 mm | 4.47 m/s, 261° | - | - |
* Rain latest hour (hover to see other rain measurements)
** Current wind speed in m/s (hover to see current wind gust speed)